Location: Dumpton Point
(51.3500°N, 1.4433°E)
Time: 05:40:11
(UTC+00:00)

Altair - Pass Details

Date: 09 October 2022
Orbit: 1501 x 1682 km, 47.2° (Epoch: 04 December)

Event Time Altitude Azimuth Distance (km) Brightness Sun altitude
Rises 04:03:28 0° 235° (SW) 4,737 - -20.0°
Reaches altitude 10° 04:06:33 10° 232° (SW) 3,778 - -19.6°
Exits shadow 04:09:09 21° 226° (SW) 3,018 8.5 -19.2°
Maximum altitude 04:15:52 57° 157° (SSE) 1,872 7.9 -18.2°
Drops below altitude 10° 04:25:32 10° 83° (E) 3,917 11.0 -16.7°
Sets 04:28:48 0° 80° (E) 4,920 12.0 -16.2°
